Hourly Data Report for October 29, 2014

All times are specified in Local Standard Time (LST). Add 1 hour to adjust for Daylight Saving Time where and when it is observed.

WINNIPEG A CS
MANITOBA

49°55'00.000" N
97°14'58.000" W
238.70 m
502S001
71849
XWG

Download Data

Hourly Data (October 2014)
Hourly Data Report for October 29, 2014
Temp Definition
°C
Dew Point Temp Definition
°C
Rel Hum Definition
%
Wind Dir Definition
10's deg

Wind Spd Definition
km/h
Visibility Definition
km
Stn Press Definition
kPa
Hmdx Definition


Wind Chill Definition


Weather Definition


TIME
00:00 1.1 -0.8 88 32 19   98.96     LegendNANA
01:00 0.6 -0.4 93 31 17   98.98     LegendNANA
02:00 0.6 -0.8 91 31 19   99.03     LegendNANA
03:00 0.6 -0.8 90 32 18   99.01     LegendNANA
04:00 0.6 -0.8 91 33 15   99.03     LegendNANA
05:00 0.5 -1.0 90 34 9   99.02     LegendNANA
06:00 0.4 -1.0 90 30 6   99.02     LegendNANA
07:00 0.2 -1.1 91 28 6   99.00     LegendNANA
08:00 0.4 -1.2 89 29 6   99.03     LegendNANA
09:00 0.7 -1.2 87 27 7   99.04     LegendNANA
10:00 1.3 -0.7 87 27 7   99.01     LegendNANA
11:00 1.3 0.1 92 26 8   99.01     LegendNANA
12:00 2.2 -0.9 80 22 8   98.97     LegendNANA
13:00 2.7 -0.8 78 25 6   98.93     LegendNANA
14:00 2.7 -1.5 74 23 9   98.87     LegendNANA
15:00 3.4 -1.3 72 17 12   98.80     LegendNANA
16:00 3.2 -1.3 72 17 14   98.78     LegendNANA
17:00 2.8 -1.2 75 17 10   98.79     LegendNANA
18:00 2.7 -1.3 75 15 13   98.80     LegendNANA
19:00 2.7 -1.0 76 15 10   98.84     LegendNANA
20:00 2.5 -0.7 79 14 10   98.84     LegendNANA
21:00 2.4 -0.5 81 11 8   98.87     LegendNANA
22:00 2.4 -0.3 82 10 9   98.91     LegendNANA
23:00 2.3 -0.4 83 13 12   98.86     LegendNANA

Notes on Data Quality.

Legend

  • E = Estimated
  • M = Missing
  • NA = Not Available
  • ‡ = Partner data that is not subject to review by the National Climate Archives
Date modified: